| time (UTC) | temp F | wind direction | speed MPH | gust MPH | rain 1hr in | rain 24hr in | rain mn in | humidity % | barometer mb |
| 20260903061543 | 85 | 169 | 1.0 | 4.0 | 0.00 | 0.00 | 0.00 | 82 | 1015.8 |
| 20260903060034 | 85 | 78 | 0.0 | 5.0 | 0.00 | 0.00 | 0.00 | 82 | 1016.1 |
| 20260903054535 | 85 | 0 | 1.0 | 6.0 | 0.00 | 0.00 | 0.00 | 82 | 1016.5 |
| 20260903053036 | 85 | 127 | 1.0 | 5.0 | 0.00 | 0.00 | 0.00 | 82 | 1016.4 |
| 20260903051537 | 85 | 145 | 1.0 | 6.0 | 0.00 | 0.00 | 0.00 | 82 | 1016.4 |
| 20260903050037 | 85 | 130 | 1.0 | 10.0 | 0.00 | 0.00 | 0.00 | 82 | 1016.3 |
| 20260903044535 | 85 | 0 | 1.0 | 6.0 | 0.00 | 0.00 | 0.00 | 82 | 1016.3 |
| 20260903043033 | 85 | 156 | 2.0 | 9.0 | 0.00 | 0.00 | 0.00 | 82 | 1016.3 |
| 20260903041540 | 85 | 0 | 1.0 | 13.0 | 0.00 | 0.00 | 0.00 | 82 | 1016.5 |
| 20260903040035 | 86 | 92 | 2.0 | 7.0 | 0.00 | 0.00 | 0.00 | 81 | 1016.3 |
| 20260903034547 | 86 | 0 | 2.0 | 7.0 | 0.00 | 0.00 | 0.00 | 82 | 1016.2 |
| 20260903033041 | 86 | 105 | 1.0 | 6.0 | 0.00 | 0.00 | 0.00 | 82 | 1016.3 |
| 20260903031539 | 86 | 112 | 1.0 | 8.0 | 0.00 | 0.00 | 0.00 | 82 | 1016.0 |
| 20260903030033 | 86 | 77 | 3.0 | 8.0 | 0.00 | 0.00 | 0.00 | 82 | 1015.9 |
| 20260903024538 | 86 | 103 | 1.0 | 9.0 | 0.00 | 0.00 | 0.00 | 81 | 1015.7 |
| 20260903023037 | 86 | 0 | 2.0 | 8.0 | 0.00 | 0.00 | 0.00 | 80 | 1015.6 |
| 20260903021535 | 87 | 128 | 1.0 | 7.0 | 0.00 | 0.00 | 0.00 | 79 | 1015.0 |
| 20260903020035 | 87 | 0 | 1.0 | 8.0 | 0.00 | 0.00 | 0.00 | 77 | 1015.0 |
| 20260903014549 | 87 | 140 | 1.0 | 11.0 | 0.00 | 0.00 | 0.00 | 75 | 1015.0 |
| 20260903013036 | 88 | 93 | 1.0 | 9.0 | 0.00 | 0.00 | 0.00 | 74 | 1015.0 |
| 20260903011537 | 88 | 101 | 5.0 | 11.0 | 0.00 | 0.00 | 0.00 | 73 | 1014.9 |
| 20260903010035 | 89 | 161 | 3.0 | 14.0 | 0.00 | 0.00 | 0.00 | 71 | 1014.3 |
| 20260903004546 | 89 | 0 | 2.0 | 9.0 | 0.00 | 0.00 | 0.00 | 66 | 1014.1 |
| 20260903003043 | 90 | 143 | 3.0 | 14.0 | 0.00 | 0.00 | 0.00 | 65 | 1014.2 |
| 20260903001535 | 90 | 175 | 2.0 | 13.0 | 0.00 | 0.00 | 0.00 | 63 | 1014.0 |
| 20260903000034 | 91 | 173 | 3.0 | 14.0 | 0.00 | 0.00 | 0.00 | 62 | 1013.6 |
| 20260902234532 | 92 | 144 | 4.0 | 10.0 | 0.00 | 0.00 | 0.00 | 62 | 1013.3 |
| 20260902233036 | 93 | 134 | 4.0 | 10.0 | 0.00 | 0.00 | 0.00 | 61 | 1013.3 |
| 20260902231536 | 93 | 161 | 4.0 | 11.0 | 0.00 | 0.00 | 0.00 | 61 | 1013.3 |
| 20260902230035 | 94 | 137 | 3.0 | 12.0 | 0.00 | 0.00 | 0.00 | 60 | 1013.0 |
| 20260902224533 | 94 | 118 | 1.0 | 12.0 | 0.00 | 0.00 | 0.00 | 60 | 1013.1 |
| 20260902223044 | 94 | 123 | 2.0 | 10.0 | 0.00 | 0.00 | 0.00 | 61 | 1013.3 |
| 20260902221535 | 95 | 120 | 3.0 | 11.0 | 0.00 | 0.00 | 0.00 | 60 | 1013.4 |
| 20260902220038 | 95 | 154 | 3.0 | 11.0 | 0.00 | 0.00 | 0.00 | 57 | 1013.4 |
| 20260902214535 | 95 | 124 | 2.0 | 10.0 | 0.00 | 0.01 | 0.00 | 59 | 1013.3 |
| 20260902213034 | 95 | 122 | 4.0 | 10.0 | 0.00 | 0.01 | 0.00 | 59 | 1013.5 |
| 20260902211534 | 96 | 162 | 1.0 | 6.0 | 0.00 | 0.01 | 0.00 | 57 | 1013.5 |
| 20260902210044 | 96 | 144 | 2.0 | 9.0 | 0.00 | 0.01 | 0.00 | 58 | 1013.7 |
| 20260902204533 | 97 | 101 | 3.0 | 10.0 | 0.00 | 0.01 | 0.00 | 57 | 1013.7 |
| 20260902203042 | 96 | 173 | 2.0 | 9.0 | 0.00 | 0.01 | 0.00 | 59 | 1013.9 |
| 20260902201543 | 96 | 153 | 4.0 | 11.0 | 0.00 | 0.01 | 0.00 | 59 | 1013.9 |
| 20260902200033 | 96 | 0 | 1.0 | 8.0 | 0.00 | 0.01 | 0.00 | 58 | 1014.1 |
| 20260902194533 | 96 | 196 | 3.0 | 8.0 | 0.00 | 0.01 | 0.00 | 58 | 1014.3 |
| 20260902193035 | 96 | 162 | 2.0 | 7.0 | 0.00 | 0.01 | 0.00 | 59 | 1014.6 |
| 20260902191546 | 95 | 175 | 1.0 | 11.0 | 0.00 | 0.01 | 0.00 | 60 | 1014.7 |
| 20260902190035 | 95 | 193 | 1.0 | 7.0 | 0.00 | 0.01 | 0.00 | 61 | 1014.7 |
| 20260902184546 | 94 | 144 | 1.0 | 6.0 | 0.00 | 0.01 | 0.00 | 62 | 1014.9 |
| 20260902183034 | 95 | 167 | 0.0 | 10.0 | 0.00 | 0.01 | 0.00 | 64 | 1015.2 |
| 20260902181536 | 94 | 155 | 2.0 | 9.0 | 0.00 | 0.01 | 0.00 | 64 | 1015.5 |
| 20260902180039 | 92 | 161 | 3.0 | 10.0 | 0.00 | 0.01 | 0.00 | 67 | 1015.9 |
| 20260902174534 | 91 | 241 | 3.0 | 10.0 | 0.00 | 0.01 | 0.00 | 69 | 1016.2 |
| 20260902173034 | 90 | 194 | 2.0 | 11.0 | 0.00 | 0.01 | 0.00 | 69 | 1016.6 |
| 20260902171535 | 90 | 177 | 3.0 | 11.0 | 0.00 | 0.01 | 0.00 | 70 | 1016.4 |
| 20260902170039 | 91 | 160 | 3.0 | 11.0 | 0.00 | 0.01 | 0.00 | 70 | 1016.9 |
| 20260902164537 | 90 | 180 | 3.0 | 11.0 | 0.00 | 0.01 | 0.00 | 73 | 1017.0 |
| 20260902163045 | 88 | 194 | 4.0 | 11.0 | 0.00 | 0.01 | 0.00 | 75 | 1016.9 |
| 20260902161535 | 88 | 173 | 3.0 | 7.0 | 0.00 | 0.01 | 0.00 | 76 | 1017.0 |
| 20260902160035 | 87 | 265 | 3.0 | 8.0 | 0.00 | 0.01 | 0.00 | 79 | 1017.0 |
| 20260902154535 | 86 | 188 | 3.0 | 9.0 | 0.00 | 0.01 | 0.00 | 80 | 1017.0 |
| 20260902153035 | 85 | 167 | 1.0 | 9.0 | 0.00 | 0.01 | 0.00 | 82 | 1017.1 |
| 20260902151535 | 85 | 228 | 2.0 | 7.0 | 0.00 | 0.01 | 0.00 | 83 | 1016.9 |
| 20260902150035 | 84 | 204 | 1.0 | 7.0 | 0.00 | 0.01 | 0.00 | 84 | 1017.0 |
| 20260902144542 | 84 | 240 | 2.0 | 4.0 | 0.00 | 0.01 | 0.00 | 85 | 1016.9 |
| 20260902143035 | 83 | 267 | 3.0 | 7.0 | 0.00 | 0.01 | 0.00 | 85 | 1017.0 |
| 20260902141537 | 83 | 234 | 1.0 | 7.0 | 0.00 | 0.01 | 0.00 | 85 | 1017.1 |
| 20260902140037 | 83 | 223 | 1.0 | 10.0 | 0.00 | 0.01 | 0.00 | 86 | 1016.8 |
| 20260902134534 | 83 | 232 | 2.0 | 8.0 | 0.00 | 0.01 | 0.00 | 86 | 1016.9 |
| 20260902133033 | 83 | 234 | 2.0 | 8.0 | 0.00 | 0.01 | 0.00 | 86 | 1016.8 |
| 20260902131534 | 82 | 183 | 1.0 | 11.0 | 0.00 | 0.01 | 0.00 | 86 | 1016.8 |
| 20260902130036 | 82 | 173 | 0.0 | 7.0 | 0.00 | 0.01 | 0.00 | 86 | 1016.5 |
| 20260902124535 | 82 | 242 | 1.0 | 7.0 | 0.00 | 0.01 | 0.00 | 86 | 1016.4 |
| 20260902123049 | 82 | 178 | 1.0 | 10.0 | 0.00 | 0.01 | 0.00 | 86 | 1016.1 |
| 20260902121532 | 82 | 147 | 2.0 | 8.0 | 0.00 | 0.01 | 0.00 | 87 | 1015.5 |
| 20260902120035 | 82 | 0 | 1.0 | 9.0 | 0.00 | 0.01 | 0.00 | 86 | 1015.4 |
| 20260902114535 | 82 | 0 | 1.0 | 7.0 | 0.00 | 0.01 | 0.00 | 86 | 1015.4 |
| 20260902113034 | 82 | 189 | 3.0 | 8.0 | 0.00 | 0.01 | 0.00 | 86 | 1015.3 |
| 20260902111541 | 82 | 209 | 1.0 | 7.0 | 0.00 | 0.01 | 0.00 | 86 | 1015.5 |
| 20260902110035 | 82 | 156 | 1.0 | 5.0 | 0.00 | 0.01 | 0.00 | 86 | 1015.3 |
| 20260902104534 | 82 | 181 | 1.0 | 6.0 | 0.00 | 0.01 | 0.00 | 86 | 1015.6 |
| 20260902103034 | 82 | 254 | 3.0 | 9.0 | 0.00 | 0.01 | 0.00 | 86 | 1015.6 |
| 20260902101535 | 82 | 196 | 1.0 | 8.0 | 0.00 | 0.01 | 0.00 | 86 | 1015.5 |
| 20260902100032 | 82 | 238 | 1.0 | 7.0 | 0.00 | 0.01 | 0.00 | 86 | 1015.2 |
| 20260902094534 | 82 | 98 | 1.0 | 6.0 | 0.00 | 0.01 | 0.00 | 86 | 1015.2 |
| 20260902093036 | 82 | 245 | 2.0 | 7.0 | 0.00 | 0.01 | 0.00 | 85 | 1015.5 |
| 20260902091532 | 82 | 0 | 1.0 | 6.0 | 0.00 | 0.01 | 0.00 | 85 | 1015.5 |
| 20260902090034 | 82 | 219 | 3.0 | 10.0 | 0.00 | 0.01 | 0.00 | 85 | 1015.2 |
| 20260902084534 | 82 | 166 | 3.0 | 9.0 | 0.00 | 0.01 | 0.00 | 85 | 1015.3 |
| 20260902083034 | 82 | 0 | 1.0 | 6.0 | 0.00 | 0.01 | 0.00 | 85 | 1015.4 |
| 20260902081535 | 82 | 185 | 1.0 | 7.0 | 0.00 | 0.01 | 0.00 | 84 | 1015.6 |
| 20260902080031 | 82 | 0 | 0.0 | 5.0 | 0.00 | 0.01 | 0.00 | 84 | 1015.4 |
| 20260902074540 | 82 | 176 | 1.0 | 5.0 | 0.00 | 0.01 | 0.00 | 84 | 1015.5 |
| 20260902073035 | 82 | 224 | 0.0 | 5.0 | 0.00 | 0.01 | 0.00 | 84 | 1015.8 |
| 20260902071534 | 83 | 185 | 1.0 | 8.0 | 0.00 | 0.01 | 0.00 | 84 | 1015.7 |
| 20260902070038 | 83 | 196 | 2.0 | 8.0 | 0.00 | 0.01 | 0.00 | 84 | 1015.6 |
| 20260902064534 | 83 | 208 | 0.0 | 6.0 | 0.00 | 0.01 | 0.00 | 82 | 1015.6 |
| 20260902063041 | 82 | 153 | 1.0 | 5.0 | 0.00 | 0.01 | 0.00 | 80 | 1015.6 |